User: anonymous   Login
Location: ???????
(55.5931°N, 39.3286°E)
Time: 06:51:56
(UTC+00:00)
Language:

FENGYUN 3A - Orbit

View from above orbital plane
View from above orbital plane
View from above satellite
View from above satellite

Ground track
Ground track

The orbit data is extracted from the following two-line orbital elements,

1 32958U 08026A   24166.84712213  .00000207  00000-0  11948-3 0  9995
2 32958  98.6040 114.0339 0009892  80.4176 279.8118 14.19104524831516
Epoch (UTC): 14 June 2024 20:19:51
Eccentricity: 0.0009892
inclination: 98.6040°
perigee height: 821 km
apogee height: 835 km
right ascension of ascending node: 114.0339°
argument of perigee: 80.4176°
revolutions per day: 14.19104524
mean anomaly at epoch: 279.8118°
orbit number at epoch: 83151

The dashed part of the orbit path shows where the satellite is in the earth's shadow,  

DLR